Regional Weather Roundup
Issued by NWS

Home | Current Version | Previous Version | Graphics & Text | Print | Product List | Glossary On
Versions: 1 2 3 4 5 6 7 8 9 10 11 12 13 14 15 16 17 18 19 20 21 22 23 24 25 26 27 28
000
ASUS45 KPSR 251010
RWRAZ

ARIZONA HOURLY REGIONAL WEATHER ROUNDUP
NATIONAL WEATHER SERVICE PHOENIX AZ
300 AM MST MON SEP 25 2017

NOTE: FAIR INDICATES FEW OR NO CLOUDS BELOW 12,000 FEET WITH NO
SIGNIFICANT WEATHER AND/OR OBSTRUCTIONS TO VISIBILITY.

AZZ001>003-036-251100-
NORTHWEST ARIZONA

CITY           SKY/WX    TMP DP  RH WIND       PRES   REMARKS
BULLHEAD CITY  CLEAR     70  30  23 N20       29.86S
KINGMAN        CLEAR     48  26  42 SE9       29.98F
$$

AZZ004>008-015-016-018-251100-
NORTH CENTRAL ARIZONA

CITY           SKY/WX    TMP DP  RH WIND       PRES   REMARKS
GRAND CANYON   CLEAR     23  12  62 CALM      30.08S
WILLIAMS       PTCLDY    30  14  51 S7        30.05F WCI  23
PRESCOTT       CLEAR     45  22  40 W6        30.00F
FLAGSTAFF      CLEAR     26  11  52 CALM      30.06F
PAYSON           N/A     54   9  16 N8        29.98S
PAGE           CLEAR     51  26  37 CALM      30.02R
$$

AZZ009>014-017-251100-
NORTHEAST ARIZONA

CITY           SKY/WX    TMP DP  RH WIND       PRES   REMARKS
WINSLOW        CLEAR     38  11  32 W3        30.02S
SAINT JOHNS    CLEAR     35  15  44 S5        30.01S WCI  31
WINDOW ROCK    CLEAR     27  13  55 W3        30.07S
SHOW LOW       CLEAR     36  25  64 MISG      30.04S
$$

AZZ540-542>544-546-548-251100-
GREATER PHOENIX AREA

CITY           SKY/WX    TMP DP  RH WIND       PRES   REMARKS
PHOENIX        CLEAR     66  26  22 SW3       29.77S
BUCKEYE        CLEAR     59  18  20 N8        29.79S
LUKE AFB       CLEAR     62  26  25 NW6       29.77S
DEER VALLEY    CLEAR     62  13  14 NE7       29.79S
SCOTTSDALE     CLEAR     61  30  31 CALM      29.81R
MESA-GATEWAY   CLEAR     54  23  30 SE7       29.80S
$$

AZZ539-553-251100-
SOUTHWEST MARICOPA COUNTY AND PINAL COUNTY

CITY           SKY/WX    TMP DP  RH WIND       PRES   REMARKS
CASA GRANDE    NOT AVBL
GILA BEND      FAIR      59  18  19 S8        29.77F
$$

AZZ503-504-507>509-251100-
SOUTHEAST ARIZONA

CITY           SKY/WX    TMP DP  RH WIND       PRES   REMARKS
TUCSON         CLEAR     59  19  21 S5        29.87S
DAVIS-MONTHAN  CLEAR     55  21  26 SE7       29.85S
NOGALES        CLEAR     49  30  48 E5        29.90F
SIERRA VISTA   CLEAR     54  23  30 SW6       29.94F
DOUGLAS        CLEAR     50  26  39 N7        29.91S
SAFFORD        CLEAR     58  22  24 E5        29.84R
$$

AZZ532-251100-
SOUTHWEST ARIZONA

CITY           SKY/WX    TMP DP  RH WIND       PRES   REMARKS
YUMA           CLEAR     66  27  23 NW3       29.79F
$$

CAZ041-043-047-048-061-525>527-560>570-251100-
SOUTHERN CALIFORNIA

CITY           SKY/WX    TMP DP  RH WIND       PRES   REMARKS
DOWNTOWN L.A.  MOCLDY    66  40  38 CALM      29.83F
L.A. AIRPORT   PTCLDY    66  43  43 CALM      29.83F
SAN DIEGO      CLEAR     64  46  52 CALM      29.85F
BURBANK        PTCLDY    63  30  28 CALM      29.85F
ONTARIO        MOCLDY    61  36  39 W6        29.85F
RIVERSIDE      PTCLDY    59  41  51 CALM      29.86F
PALM SPRINGS   CLEAR     69  22  16 NW6       29.87S
EL CENTRO NAS  CLEAR     59  24  26 W8        29.83S
IMPERIAL       CLEAR     60  35  39 W8        29.81S
BLYTHE         PTCLDY    64  24  21 W7        29.82S
NEEDLES        CLEAR     70  26  19 N9        29.87S
$$

NVZ020-UTZ003-251100-
SOUTHERN NEVADA-UTAH

CITY           SKY/WX    TMP DP  RH WIND       PRES   REMARKS
LAS VEGAS      CLEAR     60  26  27 S3        29.97S
SALT LAKE CITY MOCLDY    45  42  89 S7        30.11S
$$

NMZ009-TXZ055-251100-
NEW MEXICO-WEST TEXAS

CITY           SKY/WX    TMP DP  RH WIND       PRES   REMARKS
ALBUQUERQUE    CLOUDY    57  23  26 N6        29.97S
EL PASO        PTCLDY    69  59  70 E5        29.82S
$$


........................KEY........................
SKY/WX - SKY CONDITION/WEATHER
TMP    - TEMPERATURE IN FAHRENHEIT
DP     - DEW POINT IN FAHRENHEIT
RH     - RELATIVE HUMIDITY IN PERCENT
WIND   - DIRECTION AND SPEED IN MILES PER HOUR (MPH)
VRB    - VARIABLE WIND DIRECTION
PRES   - MEAN SEA LEVEL PRESSURE IN INCHES OF MERCURY
         F - FALLING PRESSURE   R - RISING PRESSURE
         S - STEADY PRESSURE
VSB    - VISIBILITY IN MILES
HX     - HEAT INDEX IN FAHRENHEIT
WCI    - WIND CHILL INDEX IN FAHRENHEIT
TC     - TEMPERATURE IN CELSIUS WHICH IS ALSO KNOWN AS
         TEMPERATURE IN CENTIGRADE
AFB    - AIR FORCE BASE
         LUKE AFB IS LUKE AIR FORCE BASE
         DAVIS-MONTHAN IS DAVIS-MONTHAN AIR FORCE BASE
NAS    - NAVAL AIR STATION
         EL CENTRO NAS IS EL CENTRO NAVAL AIR STATION
N/A    - NOT AVAILABLE





USA.gov is the U.S. government's official web portal to all federal, state and local government web resources and services.